Preview of NWS' New Version of Forecast
This preview is not operational and should not be used for support decisions.
Latest weather observations around

Merced Regional Airport (KMCE)

Using English Units (Switch to International System of Units)
Date/ Time (PDT) Wind (mph) Vis. (mi) Weather Sky Cond. Temp (°F) Rel. Humidity Wind Chill (°F) Heat Index (°F) Pressure Precip. (in)
Air Dwpt 6 hour Altimeter (inHg) Sea level (inHg) 1 hr 3 hr 6 hr
Max Min
Aug 18 03:53 NW 3 10 Clear CLR 60 52     75%     29.77 29.77      
Aug 18 02:53 W 5 10 Clear CLR 62 51     67%     29.77 29.76      
Aug 18 01:53 W 7 10 Clear CLR 62 51     67%     29.76 29.75      
Aug 18 00:53 W 3 10 Clear CLR 62 51     67%     29.76 29.76      
Aug 17 23:53 WSW 5 10 Clear CLR 63 53     70%     29.76 29.76      
Aug 17 22:53 W 6 10 Clear CLR 66 52     61%     29.76 29.75      
Aug 17 21:53 W 7 10 Clear CLR 69 52     54%     29.75 29.75      
Aug 17 20:53 W 7 10 Clear CLR 71 52     51%   70 29.73 29.72      
Aug 17 19:53 WSW 7 10 Clear CLR 75 53     46%   74 29.71 29.71      
Aug 17 18:53 WSW 9 10 Clear CLR 83 55     38%   82 29.7 29.69      
Aug 17 17:53 WSW 6 10 Clear CLR 90 51     27%   87 29.7 29.69      
Aug 17 16:53 W 8 10 Clear CLR 93 49     22%   90 29.71 29.7      
Aug 17 15:53 W 10 10 Clear CLR 93 53     26%   91 29.72 29.71      
Aug 17 14:53 W 8 10 Clear CLR 93 52     25%   90 29.74 29.73      
Aug 17 13:53 W 8 10 Clear CLR 92 53     27%   89 29.76 29.75      
Aug 17 12:53 W 7 10 Clear CLR 89 55     32%   87 29.77 29.76      
Aug 17 11:53 W 8 10 Clear CLR 86 56     36%   85 29.79 29.78      
Aug 17 10:53 W 7 10 Clear CLR 84 55     37%   83 29.79 29.78      
Aug 17 09:53 6 10 Clear CLR 80 57     45%   80 29.79 29.78      
Aug 17 08:53 NW 6 10 Clear CLR 76 58     54%   76 29.78 29.78      
Aug 17 07:53 N 3 10 Clear CLR 72 54     53%   71 29.77 29.76      
Aug 17 06:53 Calm 10 Clear CLR 65 55     70%     29.76 29.75      
Aug 17 05:53 SE 6 10 Clear CLR 63 55     75%     29.74 29.74      
Aug 17 04:53 Calm 10 Clear CLR 69 53     57%     29.72 29.72      
Aug 17 03:53 W 5 10 Clear CLR 68 56     65%     29.73 29.72      
Aug 17 02:53 WSW 3 10 Clear CLR 67 56     68%     29.73 29.72      
Aug 17 01:53 W 7 10 Clear CLR 70 56     61%     29.74 29.73      
Aug 17 00:53 W 9 10 Clear CLR 71 55     57%   71 29.74 29.73      
Aug 16 22:53 W 5 10 Clear CLR 74 57     56%   74 29.74 29.73      
Aug 16 21:53 W 5 10 Clear CLR 77 55     47%   77 29.74 29.73      
Aug 16 20:53 W 8 10 Clear CLR 80 56     44%   80 29.73 29.72      
Aug 16 19:53 WSW 6 10 Clear CLR 86 60     42%   86 29.72 29.71      
Aug 16 18:53 WSW 3 10 Clear CLR 96 59     29%   96 29.7 29.7      
Aug 16 17:53 NNW 8 10 Clear CLR 103 42     13%   98 29.71 29.7      
Aug 16 16:53 W 7 10 Clear CLR 103 45     14%   99 29.72 29.72      
Aug 16 15:53 6 10 Clear CLR 103 44     14%   99 29.74 29.73      
Aug 16 14:53 W 7 10 Clear   104 48     15%   101 29.76 29.75      
Aug 16 13:53 NNW 7 10 Clear CLR 102 52     19%   100 29.78 29.78      
Aug 16 12:53 5 10 Clear CLR 99 53     22%   97 29.8 29.79      
Aug 16 11:53 N 7 10 Clear CLR 96 51     22%   93 29.82 29.81      
Aug 16 10:53 WNW 5 10 Clear CLR 92 55     29%   90 29.84 29.83      
Aug 16 09:53 N 6 10 Clear CLR 87 56     35%   86 29.84 29.83      
Aug 16 08:53 NNE 6 10 Clear CLR 84 55     37%   83 29.84 29.83      
Aug 16 07:53 NNE 3 10 Clear CLR 78 58     50%   78 29.83 29.83      
Aug 16 06:53 Calm 10 Clear CLR 66 59     78%     29.82 29.81      
Aug 16 05:53 NW 3 10 Clear CLR 71 59     66%   71 29.8 29.8      
Aug 16 04:53 Calm 10 Clear CLR 70 59     68%     29.8 29.79      
Aug 16 03:53 W 5 10 Clear CLR 71 59     66%   71 29.8 29.79      
Aug 16 02:53 Calm 10 Clear CLR 72 59     64%   72 29.8 29.79      
Aug 16 01:53 W 3 10 Clear CLR 74 58     57%   74 29.81 29.8      
Aug 16 00:53 W 3 10 Clear CLR 75 56     52%   75 29.81 29.8      
Aug 15 23:53 NNW 3 10 Clear CLR 80 53     39%   80 29.81 29.8      
Aug 15 22:53 W 6 10 Clear CLR 81 51     35%   80 29.81 29.8      
Aug 15 21:53 W 6 10 Clear CLR 81 60     49%   82 29.81 29.8      
Aug 15 20:53 W 9 10 Clear CLR 87 64     46%   88 29.8 29.79      
Aug 15 19:53 WNW 5 10 Clear CLR 94 56     28%   92 29.79 29.78      
Aug 15 18:53 NW 6 10 Clear CLR 99 57     25%   98 29.79 29.78      
Aug 15 17:53 NW 10 10 Clear CLR 102 54     20%   100 29.8 29.79      
Aug 15 16:53 NNW 8 10 Clear CLR 103 54     20%   101 29.81 29.8      
Aug 15 15:53 N 10 10 Clear CLR 104 51     17%   101 29.82 29.82      
Aug 15 14:53 NW 6 10 Clear CLR 101 53     20%   99 29.85 29.84      
Aug 15 13:53 5 10 Clear CLR 100 52     20%   98 29.87 29.86      
Aug 15 12:53 NNW 6 10 Clear CLR 99 51     20%   96 29.89 29.88      
Aug 15 11:53 5 10 Clear CLR 96 51     22%   93 29.9 29.9      
Aug 15 10:53 NW 9 10 Clear CLR 92 51     25%   89 29.92 29.91      
Aug 15 09:53 NNW 5 10 Clear CLR 87 60     40%   87 29.92 29.91      
Aug 15 08:53 Calm 10 Clear CLR 80 59     49%   81 29.92 29.91      
Aug 15 07:53 Calm 10 Clear CLR 75 58     55%   75 29.92 29.91      
Aug 15 06:53 NW 3 10 Clear CLR 67 59     76%     29.9 29.9      
Aug 15 05:53 W 3 10 Clear CLR 68 59     73%     29.9 29.9      
Aug 15 04:53 NW 3 10 Clear CLR 70 59     68%     29.89 29.88      
Aug 15 03:53 Calm 10 Clear CLR 70 60     71%     29.89 29.88      
Aug 15 02:53 WSW 5 10 Clear CLR 71 62     73%   71 29.89 29.88      
Aug 15 01:53 W 3 10 Clear CLR 74 61     64%   74 29.9 29.89      
Aug 15 00:53 NW 3 10 Clear CLR 78 60     54%   78 29.9 29.9      
Aug 14 23:53 N 6 10 Clear CLR 77 62     60%   77 29.9 29.9      
Aug 14 22:53 NNW 5 10 Clear CLR 81 62     53%   82 29.9 29.89      
Aug 14 21:53 W 6 10 Clear CLR 83 63     51%   84 29.9 29.89      
Aug 14 20:53 W 6 10 Clear CLR 85 61     45%   85 29.88 29.88      
Aug 14 19:53 WNW 6 10 Clear CLR 92 56     30%   90 29.87 29.86      
Aug 14 18:53 NNW 8 10 Clear CLR 97 53     23%   95 29.86 29.85      
Aug 14 17:53 NW 9 10 Clear CLR 100 54     22%   98 29.86 29.85      
Aug 14 16:53 N 10 10 Clear CLR 102 50     18%   99 29.86 29.86      
May 14 17:53 NW 5 10 Clear   79 48     34%   78 29.86 29.85      
May 13 21:53   10 Clear CLR 66 50     56%     29.92 29.92      
May 13 20:53 NNW 11 10 Clear CLR 69 51     53%     29.9 29.9      
May 12 18:53 WSW 10 10 Clear CLR 74 48     40%   73 29.8 29.8      
May 11 22:53 NW 11 10 Clear CLR 67 39     36%     29.69 29.68      
May 11 08:53 NW 13 10 Clear CLR 64 51     63%     29.8 29.8      
Jun 12 03:53 Calm 10 Clear CLR 51 43     74%     30.03 30.02      
Jun 12 02:53 NW 3 10 Clear CLR 49 43     80% 48   30.02 30.01      
Jun 10 15:53 WNW 14 10 Clear CLR 77 40     26%   76 29.86 29.86      
Jun 10 08:53 NW 17 10 Clear CLR 62 42     48%     29.94 29.93      
Jun 08 13:53 NNW 13 10 Cloudy OVC080 71 41     34%   69 30 29.99      
Jun 07 09:53 NNW 9 10 Clear CLR 78 40     26%   77 29.86 29.85      
Jun 07 06:53 NNW 3 10 Clear CLR 62 45     53%     29.84 29.84